Weather History for LIRK - November, 2012

Change the Weather History Date:

Wednesday, November 28, 2012

  Actual Average Record
Temperature  
Mean Temperature 34 °F -  
Max Temperature 39 °F 35 °F 46 °F (2002)
Min Temperature 30 °F 28 °F 17 °F (2013)
Degree Days  
Heating Degree Days 30    
Moisture  
Dew Point 35 °F    
Average Humidity 92    
Maximum Humidity 93    
Minimum Humidity 87    
Precipitation  
Precipitation 0.00 in - - ()
Sea Level Pressure  
Sea Level Pressure 29.47 in    
Wind  
Wind Speed 32 mph ()    
Max Wind Speed 50 mph    
Max Gust Speed -    
Visibility 0.0 miles    
Events Fog , Rain    
Averages and records for this station are not official NWS values.
T = Trace of Precipitation, MM = Missing Value Source: Averaged Metar Reports

Daily Weather History Graph

Daily Weather History Graph

Search for Another Location

Airport or City:

Trip Planner

Search our weather history database for the weather conditions in past years. The results will help you decide how hot, cold, wet, or windy it might be!

Date:

Astronomy

Nov. 28, 2012 Rise Set
Actual Time 7:14 AM CET 4:37 PM CET
Civil Twilight 6:43 AM CET 5:08 PM CET
Nautical Twilight 6:08 AM CET 5:43 PM CET
Astronomical Twilight 5:35 AM CET 6:16 PM CET
Moon 4:39 PM CET (11/28) 6:57 AM CET (11/28)
Length of Visible Light 10h 24m
Length of Day
9h 22m
Full, 100% of the Moon is Illuminated
Nov 28
Full
Nov 28
Full
Dec 6
Last Quarter
Dec 13
New
Dec 20
First Quarter

Hourly Weather History & Observations

Time (CET) Temp. Dew Point Humidity Pressure Visibility Wind Dir Wind Speed Gust Speed Precip Events Conditions
12:55 AM 39.2 °F 37.4 °F 93% 29.80 in 0.0 mi North - - N/A Fog , Rain Light Rain
1:00 AM 39 °F 37 °F 89%  in 0 mi West 39.1 mph - -  
1:55 AM 39.2 °F 37.4 °F 93% 29.77 in 0.0 mi North - - N/A Fog Fog
2:55 AM 39.2 °F 37.4 °F 93% 29.74 in 0.0 mi North - - N/A Fog Fog
3:55 AM 39.2 °F 37.4 °F 93% 29.74 in 0.0 mi North - - N/A Fog Fog
5:55 AM 39.2 °F 35.6 °F 87% 29.65 in 0.0 mi North - - N/A Fog Fog
6:55 AM 39.2 °F 35.6 °F 87% 29.62 in 0.0 mi North - - N/A Fog Fog
7:00 AM 38 °F 36 °F 90%  in 0 mi WNW 48.3 mph - -  
7:55 AM 37.4 °F 35.6 °F 93% 29.56 in 0.0 mi North - - N/A Fog , Rain Light Rain
8:55 AM 37.4 °F 35.6 °F 93% 29.50 in 0.0 mi North - - N/A Fog , Rain Light Rain
9:55 AM 37.4 °F 35.6 °F 93% 29.47 in 0.0 mi North - - N/A Fog , Rain Light Rain
10:55 AM 39.2 °F 35.6 °F 87% 29.47 in 0.0 mi North - - N/A Fog , Rain Light Rain
11:55 AM 39.2 °F 37.4 °F 93% 29.44 in 0.0 mi North - - N/A Fog , Rain Light Rain
12:55 PM 39.2 °F 37.4 °F 93% 29.39 in 0.0 mi North - - N/A Fog , Rain Rain
1:00 PM 39 °F 37 °F 90%  in 0 mi NE 49.5 mph - -  
1:55 PM 39.2 °F 37.4 °F 93% 29.36 in 0.0 mi North - - N/A Fog , Rain Rain
2:55 PM 39.2 °F 37.4 °F 93% 29.33 in 0.0 mi North - - N/A Fog , Rain Rain
3:55 PM 35.6 °F 33.8 °F 93% 29.36 in 0.0 mi North - - N/A Fog , Rain Rain
4:55 PM 33.8 °F 32.0 °F 93% 29.33 in - North - - N/A Fog Light Freezing Fog
5:55 PM 33.8 °F 32.0 °F 93% 29.33 in - North - - N/A Fog Light Freezing Fog
6:55 PM 32.0 °F 30.2 °F 93% 29.30 in - North - - N/A Fog Light Freezing Fog
7:00 PM 33 °F 31 °F 87%  in 0 mi NE 41.4 mph - -  
7:55 PM 32.0 °F 30.2 °F 93% 29.30 in - North - - N/A Fog Light Freezing Fog
9:55 PM 30.2 °F 28.4 °F 93% 29.30 in - North - - N/A Fog Light Freezing Fog
10:55 PM 30.2 °F 28.4 °F 93% 29.30 in - North - - N/A Fog Light Freezing Fog
11:55 PM 30.2 °F 28.4 °F 93% 29.33 in - North - - N/A Fog Light Freezing Fog